Location: Brantley
(31.5822°N, 86.2569°W)
Time: 21:06:33
(UTC+00:00)

Injun/Solrad 3 - Pass Details

Date: 24 February 2026
Orbit: 872 x 984 km, 66.8° (Epoch: 6 March)

Event Time Altitude Azimuth Distance (km) Brightness Sun altitude
Rises 00:23:32 0° 342° (NNW) 3,597 11.1 -10.3°
Reaches altitude 10° 00:26:12 10° 349° (N) 2,668 10.4 -10.9°
Maximum altitude 00:32:07 43° 60° (ENE) 1,317 8.3 -12.1°
Drops below altitude 10° 00:38:07 10° 131° (SE) 2,715 9.9 -13.4°
Enters shadow 00:39:41 - 135° (SE) 3,261 10.4 -13.7°
Sets 00:40:50 0° 138° (SE) 3,668 - -14.0°
